SL-24 R/B

Satellite information

Favourite Embed

Satellite Type and Status

ROCKET BODYIN ORBIT

Key statistics

Satellite SL-24 R/B at a glance.

Uptime

6657

Days in orbit

Revolutions

≈ 14.5

Per day

Orbit

SSO

Sun Synchronous Orbit

Inclination

97.4

Latest

Satellite identification and parameters

Extended collection of information and parameters for SL-24 R/B.

Object identification

Identified? True

Debris? False

Object name: SL-24 R/B

International designator: 2007-026B

Object number (NORAD): 31699

Object ID (CCSDS): 31699

Country: COMMONWEALTH OF INDEPENDENT STATES (CIS)

Current information (Y/N): Y

RCS size: LARGE

Orbital parameters

Period: 99.635 minutes

Inclination: 97.434 deg

SMA: 7119.249 km

Apoapsis: 980.048 km

Periapsis: 502.181 km

RAAN: 246.9459 deg

Eccentricy: 0.03356164

Argument of periapsis: 168.0034 deg

Mean anomaly: 203.8224 deg

Mean motion: 14.45278188 rev/day

Mean motion (dot): 0.00000925 rev/day2

B* drag term: 0.00013783994 1/REarth

Two-line elements (TLE)

Creation date: Sept. 4, 2025, 10:13 a.m.

Reference frame: TEME

Reference center: EARTH

Epoch: Sept. 4, 2025, 6:06 a.m. UTC

TLE line 0: 0 SL-24 R/B

TLE line 1: 1 31699U 07026B 25247.25456096 .00000925 00000-0 13784-3 0 9992

TLE line 2: 2 31699 97.4340 246.9459 0335616 168.0034 203.8224 14.45278188958216

Live tracking on map

Real-time ground track for satellite SL-24 R/B.

In-orbit conjunctions

A list of the most updated potential collisions computed for object SL-24 R/B.

Target Orbit TCA Probability of collision Miss distance Type
COSMOS 2251 DEB LEO 2025-09-07 11:38:46 0.001053747 56.0 (m) DEBRIS
FENGYUN 1C DEB SSO 2024-07-03 03:12:27 0.0002099335 95.0 (m) DEBRIS

Associated space launch

German Earth observation satellite

SL-24 R/B was lifted into orbit during the mission ‘Dnepr | TerraSAR-X’, on board a Dnepr space rocket.

The launch took place on June 15, 2007, 2:14 a.m. from 109/95.

For more information about the launch, click the button.

Launch to space Dnepr | TerraSAR-X
Dnepr | TerraSAR-X

Agency: N/A

Status: Launch Successful

Launch date: June 15, 2007, 2:14 a.m. UTC

Rocket: Dnepr

Launch pad: 109/95

Location: Baikonur Cosmodrome, Republic of Kazakhstan

...

Latest news about this satellite

There are no fresh news available about this satellite. Check back as we update our databases every day.


Newsletter sign-up

Weekly statistics, charts and insights to help you stay on top of the space industry.